Grant County, OR

8:47 AM PDT on August 25, 2019 (GMT -0700)
Grant County Regional

Weather History for KGCD - July, 2019

Change the Weather History Date:

Wednesday, July 17, 2019

  Actual Average (KBNO) Record (KBNO)
Temperature  
Mean Temperature 66 °F -  
Max Temperature 83 °F 85 °F 99 °F (1959)
Min Temperature 51 °F 45 °F 30 °F (1986)
Cooling Degree Days 2    
Growing Degree Days 16 (Base 50)    
Moisture  
Dew Point 45 °F    
Average Humidity 46    
Maximum Humidity 76    
Minimum Humidity 24    
Precipitation  
Precipitation 0.00 in - - ()
Sea Level Pressure  
Sea Level Pressure 29.99 in    
Wind  
Wind Speed 6 mph (WNW)    
Max Wind Speed 16 mph    
Max Gust Speed 21 mph    
Visibility 10 miles    
Events      
Averages and records for this station are not official NWS values.
T = Trace of Precipitation, MM = Missing Value Source: NWS Daily Summary

Daily Weather History Graph

Daily Weather History Graph

Search for Another Location

Airport or City:

Astronomy

Jul. 17, 2019 Rise Set
Actual Time 5:27 AM PDT 8:36 PM PDT
Civil Twilight 4:52 AM PDT 9:11 PM PDT
Nautical Twilight 4:06 AM PDT 9:56 PM PDT
Astronomical Twilight 3:11 AM PDT 10:50 PM PDT
Moon 9:27 PM PDT (7/17) 6:04 AM PDT (7/17)
Length of Visible Light 16h 19m
Length of Day
15h 08m
Full, 99% of the Moon is Illuminated
Jul 17
Full
Jul 24
Last Quarter
Jul 31
New
Aug 7
First Quarter
Aug 15
Full

Hourly Weather History & Observations

Time (PDT) Temp. Dew Point Humidity Pressure Visibility Wind Dir Wind Speed Gust Speed Precip Events Conditions
12:15 AM 61.7 °F 44.4 °F 53% 30.00 in 10.0 mi NW 9.2 mph - N/A   Clear
12:35 AM 60.8 °F 44.1 °F 54% 30.01 in 10.0 mi NW 4.6 mph - N/A   Clear
12:55 AM 60.1 °F 43.9 °F 55% 30.01 in 10.0 mi NW 4.6 mph - N/A   Clear
1:15 AM 60.1 °F 43.5 °F 54% 30.01 in 10.0 mi Calm Calm - N/A   Clear
1:35 AM 61.0 °F 44.6 °F 55% 30.01 in 10.0 mi Calm Calm - N/A   Clear
1:55 AM 58.6 °F 44.8 °F 60% 30.01 in 10.0 mi Calm Calm - N/A   Clear
2:15 AM 57.7 °F 45.0 °F 62% 30.01 in 10.0 mi SW 3.5 mph - N/A   Clear
2:35 AM 57.2 °F 44.6 °F 63% 30.01 in 10.0 mi WSW 5.8 mph - N/A   Clear
2:55 AM 57.2 °F 44.6 °F 63% 30.01 in 10.0 mi WSW 4.6 mph - N/A   Clear
3:15 AM 56.5 °F 44.8 °F 65% 30.02 in 10.0 mi WSW 4.6 mph - N/A   Clear
3:35 AM 56.3 °F 44.8 °F 65% 30.01 in 10.0 mi WSW 4.6 mph - N/A   Clear
3:55 AM 55.8 °F 44.6 °F 66% 30.01 in 10.0 mi WSW 4.6 mph - N/A   Clear
4:15 AM 55.6 °F 44.8 °F 67% 30.01 in 10.0 mi Calm Calm - N/A   Clear
4:35 AM 54.0 °F 44.6 °F 71% 30.02 in 10.0 mi Calm Calm - N/A   Clear
4:55 AM 53.1 °F 44.8 °F 73% 30.02 in 10.0 mi ESE 6.9 mph - N/A   Clear
5:15 AM 51.8 °F 44.6 °F 76% 30.02 in 10.0 mi East 6.9 mph - N/A   Clear
5:35 AM 52.7 °F 44.6 °F 74% 30.02 in 10.0 mi East 8.1 mph - N/A   Clear
5:55 AM 52.3 °F 44.6 °F 75% 30.03 in 10.0 mi East 6.9 mph - N/A   Clear
6:15 AM 52.2 °F 44.6 °F 75% 30.03 in 10.0 mi East 4.6 mph - N/A   Clear
6:35 AM 53.4 °F 44.6 °F 72% 30.02 in 10.0 mi ESE 4.6 mph - N/A   Scattered Clouds
6:55 AM 54.5 °F 44.6 °F 69% 30.02 in 10.0 mi ESE 8.1 mph - N/A   Clear
7:15 AM 55.9 °F 45.1 °F 67% 30.02 in 10.0 mi ESE 6.9 mph - N/A   Clear
7:35 AM 58.1 °F 45.5 °F 63% 30.04 in 10.0 mi East 6.9 mph - N/A   Clear
7:55 AM 58.6 °F 45.7 °F 62% 30.03 in 10.0 mi ESE 6.9 mph - N/A   Clear
8:15 AM 60.8 °F 45.7 °F 57% 30.04 in 10.0 mi Calm Calm - N/A   Clear
8:35 AM 62.6 °F 46.0 °F 55% 30.04 in 10.0 mi Calm Calm - N/A   Clear
8:55 AM 64.4 °F 46.2 °F 52% 30.02 in 10.0 mi SSE 3.5 mph - N/A   Clear
9:15 AM 66.2 °F 46.0 °F 48% 30.01 in 10.0 mi Calm Calm - N/A   Clear
9:35 AM 66.0 °F 46.8 °F 50% 30.01 in 10.0 mi NW 3.5 mph - N/A   Clear
9:55 AM 68.2 °F 46.6 °F 46% 30.01 in 10.0 mi NW 4.6 mph - N/A   Clear
10:15 AM 69.3 °F 46.0 °F 43% 30.01 in 10.0 mi NNW 5.8 mph - N/A   Clear
10:35 AM 70.2 °F 46.6 °F 43% 30.00 in 10.0 mi West 4.6 mph - N/A   Clear
10:55 AM 72.5 °F 45.3 °F 38% 30.00 in 10.0 mi WNW 10.4 mph - N/A   Clear
11:15 AM 73.4 °F 45.5 °F 37% 30.00 in 10.0 mi West 4.6 mph - N/A   Clear
11:35 AM 74.8 °F 43.7 °F 33% 29.99 in 10.0 mi West 9.2 mph - N/A   Clear
11:55 AM 76.3 °F 41.0 °F 28% 29.99 in 10.0 mi West 9.2 mph - N/A   Clear
12:15 PM 76.6 °F 40.5 °F 27% 29.99 in 10.0 mi WSW 8.1 mph - N/A   Clear
12:35 PM 77.0 °F 39.6 °F 26% 29.98 in 10.0 mi North 3.5 mph 9.2 mph N/A   Clear
12:55 PM 78.6 °F 40.5 °F 26% 29.98 in 10.0 mi SW 4.6 mph - N/A   Clear
1:15 PM 78.3 °F 40.1 °F 25% 29.98 in 10.0 mi NNW 4.6 mph - N/A   Clear
1:35 PM 79.7 °F 39.6 °F 24% 29.98 in 10.0 mi NW 9.2 mph 17.3 mph N/A   Clear
1:55 PM 79.9 °F 40.8 °F 25% 29.97 in 10.0 mi WNW 11.5 mph 19.6 mph N/A   Clear
2:15 PM 81.1 °F 42.4 °F 25% 29.97 in 10.0 mi NW 8.1 mph 18.4 mph N/A   Clear
2:35 PM 79.9 °F 43.3 °F 27% 29.97 in 10.0 mi WSW 9.2 mph - N/A   Clear
2:55 PM 81.0 °F 44.2 °F 27% 29.96 in 10.0 mi WNW 8.1 mph 16.1 mph N/A   Clear
3:15 PM 82.0 °F 44.8 °F 27% 29.96 in 10.0 mi West 5.8 mph 17.3 mph N/A   Clear
3:55 PM 82.6 °F 44.8 °F 26% 29.95 in 10.0 mi West 10.4 mph - N/A   Clear
4:15 PM 82.0 °F 44.2 °F 26% 29.94 in 10.0 mi WNW 6.9 mph - N/A   Clear
4:35 PM 82.4 °F 44.4 °F 26% 29.94 in 10.0 mi NW 9.2 mph - N/A   Clear
4:55 PM 82.9 °F 44.1 °F 25% 29.94 in 10.0 mi NW 9.2 mph 16.1 mph N/A   Clear
5:15 PM 82.6 °F 44.2 °F 26% 29.94 in 10.0 mi WNW 10.4 mph 18.4 mph N/A   Clear
5:35 PM 82.9 °F 44.6 °F 26% 29.93 in 10.0 mi West 12.7 mph - N/A   Scattered Clouds
5:55 PM 82.4 °F 44.6 °F 26% 29.93 in 10.0 mi WNW 11.5 mph 18.4 mph N/A   Mostly Cloudy
6:15 PM 82.2 °F 44.8 °F 27% 29.93 in 10.0 mi West 10.4 mph - N/A   Overcast
6:35 PM 80.8 °F 44.2 °F 27% 29.93 in 10.0 mi NW 12.7 mph 20.7 mph N/A   Mostly Cloudy
6:55 PM 80.1 °F 44.6 °F 29% 29.93 in 10.0 mi NNW 16.1 mph 20.7 mph N/A   Scattered Clouds
7:15 PM 76.5 °F 44.1 °F 31% 29.94 in 10.0 mi NNW 12.7 mph - N/A   Clear
7:35 PM 75.2 °F 44.6 °F 34% 29.94 in 10.0 mi NW 6.9 mph - N/A   Clear
7:55 PM 74.8 °F 44.8 °F 34% 29.94 in 10.0 mi WNW 5.8 mph - N/A   Clear
8:15 PM 73.8 °F 45.5 °F 36% 29.94 in 10.0 mi WNW 5.8 mph - N/A   Scattered Clouds
8:35 PM 73.4 °F 45.5 °F 37% 29.95 in 10.0 mi WNW 6.9 mph - N/A   Scattered Clouds
8:55 PM 71.8 °F 45.5 °F 39% 29.95 in 10.0 mi West 5.8 mph - N/A   Clear
9:15 PM 71.6 °F 45.7 °F 39% 29.96 in 10.0 mi WNW 9.2 mph - N/A   Scattered Clouds
9:35 PM 70.9 °F 46.4 °F 42% 29.96 in 10.0 mi WNW 5.8 mph - N/A   Mostly Cloudy
9:55 PM 70.0 °F 47.3 °F 44% 29.97 in 10.0 mi NNW 6.9 mph - N/A   Mostly Cloudy
10:15 PM 68.9 °F 48.2 °F 48% 29.97 in 10.0 mi NW 9.2 mph - N/A   Mostly Cloudy
10:35 PM 68.2 °F 48.4 °F 49% 29.98 in 10.0 mi WNW 9.2 mph - N/A   Scattered Clouds
10:55 PM 67.1 °F 48.4 °F 51% 29.98 in 10.0 mi WNW 4.6 mph - N/A   Clear
11:15 PM 65.7 °F 48.6 °F 54% 29.98 in 10.0 mi West 4.6 mph - N/A   Clear
11:35 PM 65.3 °F 49.1 °F 56% 29.99 in 10.0 mi Calm Calm - N/A   Clear
11:55 PM 65.7 °F 49.3 °F 55% 29.99 in 10.0 mi NNW 3.5 mph - N/A   Clear